| time (UTC) | temp F | wind direction | speed knots | gust knots | rain 1hr in | rain 24hr in | rain mn in | humidity % | barometer mb |
| 20260901070258 | 71 | 260 | 2.6 | 6.1 | 0.00 | 0.00 | 0.00 | 60 | 1020.5 |
| 20260901065804 | 70 | 238 | 2.6 | 5.2 | 0.00 | 0.00 | 0.00 | 62 | 1020.5 |
| 20260901065238 | 70 | 209 | 2.6 | 4.3 | 0.00 | 0.00 | 0.00 | 62 | 1020.5 |
| 20260901064728 | 70 | 262 | 3.5 | 6.1 | 0.00 | 0.00 | 0.00 | 64 | 1020.4 |
| 20260901064219 | 70 | 225 | 2.6 | 4.3 | 0.00 | 0.00 | 0.00 | 64 | 1020.4 |
| 20260901063727 | 69 | 233 | 2.6 | 5.2 | 0.00 | 0.00 | 0.00 | 63 | 1020.3 |
| 20260901063200 | 69 | 245 | 2.6 | 5.2 | 0.00 | 0.00 | 0.00 | 63 | 1020.3 |
| 20260901062648 | 69 | 221 | 2.6 | 5.2 | 0.00 | 0.00 | 0.00 | 65 | 1020.3 |
| 20260901062138 | 69 | 287 | 2.6 | 5.2 | 0.00 | 0.00 | 0.00 | 65 | 1020.3 |
| 20260901061628 | 69 | 258 | 3.5 | 5.2 | 0.00 | 0.00 | 0.00 | 64 | 1020.2 |
| 20260901061118 | 69 | 209 | 3.5 | 6.1 | 0.00 | 0.00 | 0.00 | 64 | 1020.2 |
| 20260901060623 | 71 | 238 | 2.6 | 5.2 | 0.00 | 0.00 | 0.00 | 62 | 1020.2 |
| 20260901060106 | 71 | 230 | 2.6 | 4.3 | 0.00 | 0.00 | 0.00 | 62 | 1020.2 |
| 20260901055548 | 72 | 228 | 2.6 | 5.2 | 0.00 | 0.00 | 0.00 | 61 | 1020.2 |
| 20260901055052 | 72 | 239 | 2.6 | 4.3 | 0.00 | 0.00 | 0.00 | 61 | 1020.2 |
| 20260901054528 | 77 | 254 | 2.6 | 5.2 | 0.00 | 0.00 | 0.00 | 52 | 1020.0 |
| 20260901054017 | 77 | 225 | 2.6 | 5.2 | 0.00 | 0.00 | 0.00 | 52 | 1020.0 |
| 20260901053508 | 76 | 278 | 2.6 | 4.3 | 0.00 | 0.00 | 0.00 | 54 | 1019.9 |
| 20260901052957 | 76 | 229 | 2.6 | 4.3 | 0.00 | 0.00 | 0.00 | 54 | 1019.9 |
| 20260901052448 | 77 | 229 | 1.7 | 2.6 | 0.00 | 0.00 | 0.00 | 56 | 1019.7 |
| 20260901051937 | 70 | 101 | 0.0 | 2.6 | 0.00 | 0.00 | 0.00 | 65 | 1019.7 |
| 20260901051428 | 70 | 68 | 0.9 | 2.6 | 0.00 | 0.00 | 0.00 | 65 | 1019.7 |
| 20260901045858 | 61 | 245 | 1.7 | 3.5 | 0.00 | 0.00 | 0.00 | 85 | 1019.6 |
| 20260901045403 | 61 | 272 | 1.7 | 3.5 | 0.00 | 0.00 | 0.00 | 85 | 1019.6 |
| 20260901044838 | 60 | 253 | 2.6 | 4.3 | 0.00 | 0.00 | 0.00 | 88 | 1019.7 |
| 20260901044327 | 60 | 256 | 1.7 | 2.6 | 0.00 | 0.00 | 0.00 | 88 | 1019.7 |
| 20260901043818 | 59 | 338 | 0.9 | 2.6 | 0.00 | 0.00 | 0.00 | 88 | 1019.6 |
| 20260901043308 | 59 | 0 | 0.9 | 0.9 | 0.00 | 0.00 | 0.00 | 88 | 1019.6 |
| 20260901042758 | 59 | 222 | 0.9 | 1.7 | 0.00 | 0.00 | 0.00 | 88 | 1019.4 |
| 20260901042247 | 59 | 125 | 0.9 | 1.7 | 0.00 | 0.00 | 0.00 | 88 | 1019.4 |
| 20260901041752 | 59 | 104 | 0.9 | 1.7 | 0.00 | 0.00 | 0.00 | 89 | 1019.3 |
| 20260901041227 | 59 | 131 | 0.9 | 2.6 | 0.00 | 0.00 | 0.00 | 89 | 1019.3 |
| 20260901040720 | 60 | 149 | 0.0 | 0.9 | 0.00 | 0.00 | 0.00 | 88 | 1019.2 |
| 20260901040207 | 60 | 233 | 0.9 | 1.7 | 0.00 | 0.00 | 0.00 | 88 | 1019.2 |
| 20260901035657 | 60 | 62 | 0.0 | 1.7 | 0.00 | 0.00 | 0.00 | 87 | 1019.1 |
| 20260901035202 | 60 | 120 | 0.9 | 1.7 | 0.00 | 0.00 | 0.00 | 87 | 1019.1 |
| 20260901034637 | 60 | 193 | 0.9 | 1.7 | 0.00 | 0.00 | 0.00 | 88 | 1019.1 |
| 20260901034129 | 60 | 266 | 0.9 | 2.6 | 0.00 | 0.00 | 0.00 | 88 | 1019.1 |
| 20260901033619 | 60 | 231 | 0.9 | 2.6 | 0.00 | 0.00 | 0.00 | 88 | 1018.9 |
| 20260901033107 | 60 | 233 | 1.7 | 2.6 | 0.00 | 0.00 | 0.00 | 88 | 1018.7 |
| 20260901032557 | 60 | 228 | 0.9 | 2.6 | 0.00 | 0.00 | 0.00 | 88 | 1018.7 |
| 20260901032046 | 61 | 243 | 1.7 | 3.5 | 0.00 | 0.00 | 0.00 | 87 | 1018.7 |
| 20260901031537 | 61 | 214 | 1.7 | 3.5 | 0.00 | 0.00 | 0.00 | 87 | 1018.7 |
| 20260901031026 | 61 | 244 | 1.7 | 3.5 | 0.00 | 0.00 | 0.00 | 86 | 1018.8 |
| 20260901030521 | 61 | 202 | 1.7 | 3.5 | 0.00 | 0.00 | 0.00 | 86 | 1018.8 |
| 20260901030007 | 61 | 219 | 1.7 | 3.5 | 0.00 | 0.00 | 0.00 | 85 | 1018.7 |
| 20260901025457 | 61 | 211 | 1.7 | 2.6 | 0.00 | 0.00 | 0.00 | 85 | 1018.7 |
| 20260901024946 | 62 | 207 | 1.7 | 2.6 | 0.00 | 0.00 | 0.00 | 84 | 1018.8 |
| 20260901024437 | 62 | 213 | 0.9 | 2.6 | 0.00 | 0.00 | 0.00 | 84 | 1018.8 |
| 20260901023927 | 62 | 212 | 0.9 | 2.6 | 0.00 | 0.00 | 0.00 | 84 | 1018.8 |
| 20260901023419 | 62 | 220 | 1.7 | 3.5 | 0.00 | 0.00 | 0.00 | 84 | 1018.8 |
| 20260901022906 | 62 | 209 | 1.7 | 2.6 | 0.00 | 0.00 | 0.00 | 82 | 1018.7 |
| 20260901022357 | 62 | 143 | 0.9 | 1.7 | 0.00 | 0.00 | 0.00 | 82 | 1018.7 |
| 20260901021846 | 62 | 215 | 0.9 | 2.6 | 0.00 | 0.00 | 0.00 | 82 | 1018.5 |
| 20260901021337 | 62 | 165 | 0.9 | 1.7 | 0.00 | 0.00 | 0.00 | 82 | 1018.5 |
| 20260901020826 | 63 | 209 | 0.9 | 2.6 | 0.00 | 0.00 | 0.00 | 81 | 1018.4 |
| 20260901020318 | 63 | 188 | 0.9 | 2.6 | 0.00 | 0.00 | 0.00 | 81 | 1018.4 |
| 20260901015806 | 63 | 202 | 0.9 | 2.6 | 0.00 | 0.00 | 0.00 | 81 | 1018.4 |
| 20260901015256 | 63 | 150 | 0.9 | 1.7 | 0.00 | 0.00 | 0.00 | 81 | 1018.2 |
| 20260901014746 | 63 | 180 | 0.9 | 1.7 | 0.00 | 0.00 | 0.00 | 81 | 1018.2 |
| 20260901014236 | 63 | 217 | 1.7 | 2.6 | 0.00 | 0.00 | 0.00 | 81 | 1018.2 |
| 20260901013726 | 63 | 221 | 0.9 | 2.6 | 0.00 | 0.00 | 0.00 | 81 | 1018.2 |
| 20260901013237 | 63 | 140 | 0.9 | 1.7 | 0.00 | 0.00 | 0.00 | 81 | 1018.1 |
| 20260901012706 | 63 | 122 | 0.0 | 0.9 | 0.00 | 0.00 | 0.00 | 81 | 1018.1 |
| 20260901012211 | 64 | 96 | 0.9 | 1.7 | 0.00 | 0.00 | 0.00 | 80 | 1018.1 |
| 20260901011701 | 64 | 195 | 0.9 | 1.7 | 0.00 | 0.00 | 0.00 | 80 | 1018.1 |
| 20260901011151 | 64 | 202 | 1.7 | 2.6 | 0.00 | 0.00 | 0.00 | 79 | 1018.0 |
| 20260901010641 | 64 | 208 | 1.7 | 3.5 | 0.00 | 0.00 | 0.00 | 79 | 1018.0 |
| 20260901010118 | 65 | 214 | 0.9 | 2.6 | 0.00 | 0.00 | 0.00 | 78 | 1018.1 |
| 20260901005606 | 65 | 237 | 0.9 | 1.7 | 0.00 | 0.00 | 0.00 | 78 | 1018.1 |
| 20260901005056 | 65 | 158 | 0.9 | 1.7 | 0.00 | 0.00 | 0.00 | 78 | 1018.1 |
| 20260901004546 | 65 | 125 | 0.9 | 1.7 | 0.00 | 0.00 | 0.00 | 78 | 1018.1 |
| 20260901004046 | 65 | 208 | 0.9 | 2.6 | 0.00 | 0.00 | 0.00 | 77 | 1018.2 |
| 20260901003526 | 65 | 164 | 0.9 | 2.6 | 0.00 | 0.00 | 0.00 | 77 | 1018.2 |
| 20260901003032 | 66 | 129 | 0.9 | 2.6 | 0.00 | 0.00 | 0.00 | 77 | 1018.3 |
| 20260901002509 | 66 | 163 | 0.9 | 1.7 | 0.00 | 0.00 | 0.00 | 77 | 1018.3 |
| 20260901001956 | 66 | 235 | 0.9 | 1.7 | 0.00 | 0.00 | 0.00 | 77 | 1018.1 |
| 20260901001445 | 66 | 268 | 0.9 | 1.7 | 0.00 | 0.00 | 0.00 | 78 | 1018.1 |
| 20260901000936 | 66 | 260 | 1.7 | 2.6 | 0.00 | 0.00 | 0.00 | 78 | 1018.1 |
| 20260901000427 | 67 | 241 | 1.7 | 2.6 | 0.00 | 0.00 | 0.00 | 81 | 1018.1 |
| 20260831235917 | 67 | 225 | 1.7 | 3.5 | 0.00 | 0.00 | 0.00 | 81 | 1018.1 |
| 20260831235405 | 66 | 256 | 1.7 | 3.5 | 0.00 | 0.00 | 0.00 | 85 | 1018.0 |
| 20260831234856 | 66 | 246 | 1.7 | 3.5 | 0.00 | 0.00 | 0.00 | 85 | 1018.0 |
| 20260831234345 | 67 | 241 | 1.7 | 2.6 | 0.00 | 0.00 | 0.00 | 83 | 1017.9 |
| 20260831233836 | 67 | 313 | 0.9 | 2.6 | 0.00 | 0.00 | 0.00 | 83 | 1017.9 |
| 20260831233325 | 67 | 169 | 0.0 | 0.0 | 0.00 | 0.00 | 0.00 | 83 | 1017.9 |
| 20260831232818 | 67 | 327 | 0.0 | 0.9 | 0.00 | 0.00 | 0.00 | 83 | 1017.9 |
| 20260831232320 | 67 | 347 | 0.9 | 1.7 | 0.00 | 0.00 | 0.00 | 84 | 1018.0 |
| 20260831231755 | 67 | 9 | 0.0 | 0.9 | 0.00 | 0.00 | 0.00 | 84 | 1018.0 |
| 20260831231245 | 67 | 21 | 0.0 | 0.0 | 0.00 | 0.00 | 0.00 | 81 | 1018.0 |
| 20260831230735 | 67 | 130 | 0.0 | 0.0 | 0.00 | 0.00 | 0.00 | 81 | 1018.0 |
| 20260831230225 | 67 | 36 | 0.0 | 0.0 | 0.00 | 0.00 | 0.00 | 81 | 1018.1 |
| 20260831225717 | 67 | 61 | 0.0 | 0.0 | 0.00 | 0.00 | 0.00 | 81 | 1018.1 |
| 20260831225205 | 67 | 90 | 0.0 | 0.9 | 0.00 | 0.00 | 0.00 | 81 | 1018.3 |
| 20260831224655 | 67 | 71 | 0.0 | 1.7 | 0.00 | 0.00 | 0.00 | 81 | 1018.3 |
| 20260831224145 | 68 | 80 | 0.0 | 0.9 | 0.00 | 0.00 | 0.00 | 80 | 1018.5 |
| 20260831223635 | 68 | 73 | 0.9 | 1.7 | 0.00 | 0.00 | 0.00 | 80 | 1018.5 |
| 20260831223124 | 68 | 90 | 0.0 | 1.7 | 0.00 | 0.00 | 0.00 | 80 | 1018.6 |
| 20260831222620 | 68 | 54 | 0.0 | 0.0 | 0.00 | 0.00 | 0.00 | 79 | 1018.5 |
| 20260831222105 | 68 | 202 | 0.9 | 1.7 | 0.00 | 0.00 | 0.00 | 79 | 1018.5 |
| 20260831221555 | 68 | 186 | 1.7 | 3.5 | 0.00 | 0.00 | 0.00 | 78 | 1018.8 |
| 20260831221044 | 68 | 231 | 1.7 | 2.6 | 0.00 | 0.00 | 0.00 | 78 | 1018.8 |
| 20260831220535 | 68 | 240 | 0.9 | 1.7 | 0.00 | 0.00 | 0.00 | 77 | 1018.5 |
| 20260831220006 | 68 | 153 | 0.0 | 0.0 | 0.00 | 0.00 | 0.00 | 77 | 1018.5 |
| 20260831215519 | 68 | 164 | 0.0 | 0.0 | 0.00 | 0.00 | 0.00 | 76 | 1018.4 |
| 20260831215019 | 68 | 274 | 0.9 | 0.9 | 0.00 | 0.00 | 0.00 | 76 | 1018.4 |
| 20260831214510 | 69 | 296 | 0.9 | 0.9 | 0.00 | 0.00 | 0.00 | 76 | 1018.2 |
| 20260831213945 | 69 | 278 | 0.9 | 1.7 | 0.00 | 0.00 | 0.00 | 76 | 1018.2 |
| 20260831213450 | 69 | 312 | 0.9 | 1.7 | 0.00 | 0.00 | 0.00 | 75 | 1018.0 |
| 20260831212924 | 69 | 295 | 0.9 | 1.7 | 0.00 | 0.00 | 0.00 | 75 | 1018.0 |
| 20260831212417 | 69 | 343 | 0.9 | 1.7 | 0.00 | 0.00 | 0.00 | 75 | 1017.5 |
| 20260831211905 | 69 | 355 | 1.7 | 2.6 | 0.00 | 0.00 | 0.00 | 75 | 1017.5 |
| 20260831211354 | 68 | 351 | 0.9 | 2.6 | 0.00 | 0.00 | 0.00 | 76 | 1017.4 |
| 20260831210844 | 68 | 8 | 0.9 | 2.6 | 0.00 | 0.00 | 0.00 | 76 | 1017.4 |
| 20260831210334 | 68 | 33 | 0.9 | 2.6 | 0.00 | 0.00 | 0.00 | 76 | 1017.3 |
| 20260831205839 | 68 | 74 | 0.9 | 1.7 | 0.00 | 0.00 | 0.00 | 76 | 1017.3 |
| 20260831205317 | 68 | 112 | 0.0 | 0.0 | 0.00 | 0.00 | 0.00 | 78 | 1017.2 |
| 20260831204805 | 68 | 52 | 0.0 | 0.0 | 0.00 | 0.00 | 0.00 | 77 | 1017.0 |
| 20260831204254 | 68 | 32 | 0.0 | 1.7 | 0.00 | 0.00 | 0.00 | 77 | 1017.0 |
| 20260831203744 | 68 | 41 | 0.9 | 1.7 | 0.00 | 0.00 | 0.00 | 78 | 1016.7 |
| 20260831203234 | 68 | 45 | 0.9 | 1.7 | 0.00 | 0.00 | 0.00 | 78 | 1016.7 |
| 20260831202724 | 68 | 22 | 0.9 | 1.7 | 0.00 | 0.00 | 0.00 | 77 | 1016.4 |
| 20260831202215 | 68 | 54 | 0.9 | 1.7 | 0.00 | 0.00 | 0.00 | 77 | 1016.4 |
| 20260831201704 | 68 | 49 | 0.9 | 1.7 | 0.00 | 0.00 | 0.00 | 78 | 1016.4 |
| 20260831201154 | 68 | 66 | 0.9 | 1.7 | 0.00 | 0.00 | 0.00 | 78 | 1016.4 |
| 20260831200644 | 68 | 159 | 0.0 | 0.9 | 0.00 | 0.00 | 0.00 | 77 | 1016.4 |
| 20260831200134 | 68 | 172 | 0.0 | 0.9 | 0.00 | 0.00 | 0.00 | 77 | 1016.4 |
| 20260831195623 | 68 | 144 | 0.9 | 0.9 | 0.00 | 0.00 | 0.00 | 76 | 1016.1 |
| 20260831195120 | 68 | 135 | 0.0 | 0.9 | 0.00 | 0.00 | 0.00 | 76 | 1016.1 |
| 20260831194604 | 68 | 144 | 0.9 | 1.7 | 0.00 | 0.00 | 0.00 | 78 | 1016.0 |
| 20260831194054 | 68 | 131 | 1.7 | 2.6 | 0.00 | 0.00 | 0.00 | 78 | 1016.0 |
| 20260831193544 | 69 | 98 | 0.9 | 1.7 | 0.00 | 0.00 | 0.00 | 76 | 1016.1 |
| 20260831193037 | 69 | 71 | 0.0 | 1.7 | 0.00 | 0.00 | 0.00 | 76 | 1016.1 |
| 20260831192523 | 69 | 72 | 0.0 | 0.9 | 0.00 | 0.00 | 0.00 | 75 | 1016.0 |
| 20260831192037 | 69 | 48 | 0.0 | 0.9 | 0.00 | 0.00 | 0.00 | 75 | 1016.0 |
| 20260831191504 | 70 | 340 | 0.9 | 1.7 | 0.00 | 0.00 | 0.00 | 75 | 1015.7 |
| 20260831190954 | 70 | 153 | 0.0 | 0.9 | 0.00 | 0.00 | 0.00 | 75 | 1015.7 |
| 20260831190443 | 70 | 217 | 0.9 | 0.9 | 0.00 | 0.00 | 0.00 | 73 | 1015.5 |
| 20260831185949 | 70 | 2 | 0.0 | 0.9 | 0.00 | 0.00 | 0.00 | 73 | 1015.3 |
| 20260831185424 | 70 | 5 | 0.0 | 0.9 | 0.00 | 0.00 | 0.00 | 73 | 1015.3 |
| 20260831184917 | 70 | 351 | 0.9 | 0.9 | 0.00 | 0.00 | 0.00 | 73 | 1015.1 |
| 20260831184403 | 70 | 18 | 0.9 | 1.7 | 0.00 | 0.00 | 0.00 | 73 | 1015.1 |
| 20260831183854 | 71 | 32 | 0.0 | 0.9 | 0.00 | 0.00 | 0.00 | 70 | 1015.1 |
| 20260831183343 | 71 | 82 | 0.0 | 0.0 | 0.00 | 0.00 | 0.00 | 70 | 1015.1 |
| 20260831182834 | 72 | 87 | 0.0 | 0.9 | 0.00 | 0.00 | 0.00 | 68 | 1015.0 |
| 20260831182338 | 72 | 180 | 1.7 | 1.7 | 0.00 | 0.00 | 0.00 | 68 | 1015.0 |
| 20260831181815 | 72 | 150 | 0.9 | 1.7 | 0.00 | 0.00 | 0.00 | 68 | 1014.7 |
| 20260831181319 | 72 | 101 | 0.0 | 1.7 | 0.00 | 0.00 | 0.00 | 68 | 1014.7 |
| 20260831180754 | 73 | 131 | 0.9 | 1.7 | 0.00 | 0.00 | 0.00 | 67 | 1014.7 |
| 20260831180243 | 73 | 76 | 0.0 | 0.9 | 0.00 | 0.00 | 0.00 | 67 | 1014.7 |
| 20260831175734 | 74 | 112 | 0.9 | 2.6 | 0.00 | 0.00 | 0.00 | 66 | 1014.8 |
| 20260831175223 | 74 | 153 | 0.9 | 1.7 | 0.00 | 0.00 | 0.00 | 66 | 1014.8 |
| 20260831174716 | 74 | 135 | 0.9 | 0.9 | 0.00 | 0.00 | 0.00 | 65 | 1014.9 |
| 20260831174203 | 74 | 86 | 0.0 | 0.9 | 0.00 | 0.00 | 0.00 | 65 | 1014.9 |
| 20260831173654 | 76 | 72 | 0.0 | 0.0 | 0.00 | 0.00 | 0.00 | 63 | 1014.8 |
| 20260831173143 | 76 | 116 | 0.0 | 0.9 | 0.00 | 0.00 | 0.00 | 63 | 1014.8 |
| 20260831172634 | 76 | 131 | 0.0 | 0.9 | 0.00 | 0.00 | 0.00 | 62 | 1014.8 |
| 20260831172123 | 76 | 235 | 0.9 | 0.9 | 0.00 | 0.00 | 0.00 | 61 | 1014.7 |
| 20260831171615 | 76 | 241 | 0.9 | 1.7 | 0.00 | 0.00 | 0.00 | 61 | 1014.7 |
| 20260831171103 | 76 | 255 | 0.9 | 2.6 | 0.00 | 0.00 | 0.00 | 61 | 1014.7 |
| 20260831170553 | 76 | 135 | 0.9 | 1.7 | 0.00 | 0.00 | 0.00 | 61 | 1014.7 |
| 20260831170043 | 77 | 250 | 1.7 | 4.3 | 0.00 | 0.00 | 0.00 | 60 | 1014.8 |
| 20260831165548 | 77 | 263 | 1.7 | 2.6 | 0.00 | 0.00 | 0.00 | 60 | 1014.8 |
| 20260831165037 | 77 | 265 | 1.7 | 3.5 | 0.00 | 0.00 | 0.00 | 60 | 1014.8 |
| 20260831164514 | 77 | 286 | 1.7 | 3.5 | 0.00 | 0.00 | 0.00 | 60 | 1014.8 |
| 20260831164003 | 78 | 230 | 2.6 | 4.3 | 0.00 | 0.00 | 0.00 | 58 | 1014.9 |
| 20260831163453 | 78 | 257 | 2.6 | 6.1 | 0.00 | 0.00 | 0.00 | 58 | 1014.9 |
| 20260831162943 | 79 | 261 | 2.6 | 6.1 | 0.00 | 0.00 | 0.00 | 57 | 1014.9 |
| 20260831162433 | 79 | 235 | 2.6 | 5.2 | 0.00 | 0.00 | 0.00 | 57 | 1014.9 |
| 20260831161923 | 79 | 252 | 2.6 | 4.3 | 0.00 | 0.00 | 0.00 | 57 | 1014.8 |
| 20260831161415 | 79 | 233 | 1.7 | 4.3 | 0.00 | 0.00 | 0.00 | 57 | 1014.8 |
| 20260831160902 | 79 | 196 | 1.7 | 5.2 | 0.00 | 0.00 | 0.00 | 56 | 1014.8 |
| 20260831160352 | 79 | 239 | 2.6 | 4.3 | 0.00 | 0.00 | 0.00 | 56 | 1014.8 |
| 20260831155843 | 80 | 238 | 3.5 | 5.2 | 0.00 | 0.00 | 0.00 | 55 | 1014.8 |
| 20260831155332 | 80 | 249 | 2.6 | 4.3 | 0.00 | 0.00 | 0.00 | 55 | 1014.8 |
| 20260831154822 | 80 | 253 | 3.5 | 5.2 | 0.00 | 0.00 | 0.00 | 55 | 1014.9 |
| 20260831154315 | 80 | 261 | 3.5 | 6.1 | 0.00 | 0.00 | 0.00 | 55 | 1014.9 |
| 20260831153802 | 81 | 257 | 2.6 | 4.3 | 0.00 | 0.00 | 0.00 | 54 | 1014.8 |
| 20260831153253 | 81 | 257 | 2.6 | 6.1 | 0.00 | 0.00 | 0.00 | 54 | 1014.8 |
| 20260831152743 | 81 | 261 | 2.6 | 5.2 | 0.00 | 0.00 | 0.00 | 54 | 1014.8 |
| 20260831152248 | 81 | 258 | 3.5 | 6.1 | 0.00 | 0.00 | 0.00 | 54 | 1014.8 |
| 20260831151722 | 81 | 244 | 3.5 | 6.1 | 0.00 | 0.00 | 0.00 | 54 | 1014.8 |
| 20260831151212 | 81 | 286 | 2.6 | 5.2 | 0.00 | 0.00 | 0.00 | 55 | 1014.9 |
| 20260831150702 | 81 | 280 | 2.6 | 5.2 | 0.00 | 0.00 | 0.00 | 55 | 1014.9 |
| 20260831150152 | 80 | 230 | 3.5 | 6.1 | 0.00 | 0.00 | 0.00 | 57 | 1014.9 |
| 20260831145641 | 80 | 180 | 4.3 | 6.1 | 0.00 | 0.00 | 0.00 | 57 | 1014.9 |
| 20260831145147 | 80 | 218 | 2.6 | 5.2 | 0.00 | 0.00 | 0.00 | 56 | 1015.0 |
| 20260831144637 | 80 | 219 | 3.5 | 7.0 | 0.00 | 0.00 | 0.00 | 56 | 1015.0 |
| 20260831144112 | 79 | 196 | 2.6 | 5.2 | 0.00 | 0.00 | 0.00 | 59 | 1015.0 |
| 20260831143602 | 79 | 212 | 2.6 | 4.3 | 0.00 | 0.00 | 0.00 | 59 | 1015.0 |
| 20260831143052 | 78 | 190 | 2.6 | 3.5 | 0.00 | 0.00 | 0.00 | 59 | 1015.1 |
| 20260831142542 | 78 | 238 | 2.6 | 3.5 | 0.00 | 0.00 | 0.00 | 59 | 1015.1 |
| 20260831142037 | 77 | 202 | 1.7 | 3.5 | 0.00 | 0.00 | 0.00 | 62 | 1015.1 |
| 20260831141522 | 77 | 273 | 1.7 | 2.6 | 0.00 | 0.00 | 0.00 | 62 | 1015.1 |
| 20260831141012 | 77 | 270 | 3.5 | 5.2 | 0.00 | 0.00 | 0.00 | 59 | 1015.3 |
| 20260831140502 | 77 | 286 | 1.7 | 4.3 | 0.00 | 0.00 | 0.00 | 59 | 1015.3 |
| 20260831135952 | 77 | 274 | 1.7 | 4.3 | 0.00 | 0.00 | 0.00 | 60 | 1015.3 |
| 20260831135442 | 76 | 249 | 2.6 | 6.1 | 0.00 | 0.00 | 0.00 | 61 | 1015.4 |
| 20260831134932 | 76 | 256 | 2.6 | 6.1 | 0.00 | 0.00 | 0.00 | 61 | 1015.4 |
| 20260831134421 | 77 | 262 | 2.6 | 5.2 | 0.00 | 0.00 | 0.00 | 61 | 1015.4 |
| 20260831133912 | 77 | 231 | 2.6 | 6.1 | 0.00 | 0.00 | 0.00 | 61 | 1015.4 |
| 20260831133402 | 78 | 283 | 2.6 | 5.2 | 0.00 | 0.00 | 0.00 | 59 | 1015.3 |
| 20260831132907 | 78 | 279 | 2.6 | 4.3 | 0.00 | 0.00 | 0.00 | 59 | 1015.3 |
| 20260831132356 | 78 | 281 | 2.6 | 5.2 | 0.00 | 0.00 | 0.00 | 57 | 1015.5 |
| 20260831131832 | 78 | 271 | 2.6 | 6.1 | 0.00 | 0.00 | 0.00 | 57 | 1015.5 |
| 20260831131321 | 78 | 344 | 3.5 | 5.2 | 0.00 | 0.00 | 0.00 | 55 | 1015.6 |
| 20260831130812 | 78 | 281 | 2.6 | 4.3 | 0.00 | 0.00 | 0.00 | 55 | 1015.6 |
| 20260831130316 | 78 | 295 | 3.5 | 7.0 | 0.00 | 0.00 | 0.00 | 56 | 1015.6 |
| 20260831125751 | 78 | 305 | 3.5 | 7.0 | 0.00 | 0.00 | 0.00 | 56 | 1015.6 |
| 20260831125241 | 79 | 307 | 4.3 | 9.6 | 0.00 | 0.00 | 0.00 | 54 | 1015.7 |
| 20260831124732 | 79 | 294 | 4.3 | 7.8 | 0.00 | 0.00 | 0.00 | 54 | 1015.7 |
| 20260831124220 | 81 | 312 | 4.3 | 11.3 | 0.00 | 0.00 | 0.00 | 51 | 1015.7 |
| 20260831123711 | 81 | 278 | 4.3 | 7.8 | 0.00 | 0.00 | 0.00 | 51 | 1015.7 |
| 20260831123216 | 81 | 263 | 5.2 | 7.8 | 0.00 | 0.00 | 0.00 | 49 | 1015.8 |
| 20260831122651 | 81 | 291 | 5.2 | 7.8 | 0.00 | 0.00 | 0.00 | 49 | 1015.8 |
| 20260831122156 | 79 | 278 | 4.3 | 8.7 | 0.00 | 0.00 | 0.00 | 51 | 1015.8 |
| 20260831121631 | 79 | 280 | 4.3 | 7.8 | 0.00 | 0.00 | 0.00 | 51 | 1015.8 |
| 20260831121135 | 79 | 270 | 3.5 | 7.0 | 0.00 | 0.00 | 0.00 | 53 | 1015.7 |
| 20260831120626 | 81 | 294 | 2.6 | 5.2 | 0.00 | 0.00 | 0.00 | 51 | 1015.8 |
| 20260831120105 | 81 | 296 | 2.6 | 6.1 | 0.00 | 0.00 | 0.00 | 51 | 1015.8 |
| 20260831115606 | 81 | 297 | 3.5 | 7.0 | 0.00 | 0.00 | 0.00 | 53 | 1015.8 |
| 20260831115040 | 81 | 297 | 4.3 | 7.0 | 0.00 | 0.00 | 0.00 | 53 | 1015.8 |
| 20260831114531 | 78 | 282 | 4.3 | 7.0 | 0.00 | 0.00 | 0.00 | 55 | 1015.8 |
| 20260831114036 | 78 | 292 | 4.3 | 7.8 | 0.00 | 0.00 | 0.00 | 55 | 1015.8 |
| 20260831113511 | 79 | 250 | 4.3 | 7.8 | 0.00 | 0.00 | 0.00 | 54 | 1015.8 |
| 20260831113000 | 79 | 274 | 5.2 | 8.7 | 0.00 | 0.00 | 0.00 | 54 | 1015.8 |
| 20260831112451 | 79 | 277 | 4.3 | 7.8 | 0.00 | 0.00 | 0.00 | 54 | 1015.7 |
| 20260831111940 | 79 | 298 | 4.3 | 7.8 | 0.00 | 0.00 | 0.00 | 54 | 1015.7 |
| 20260831111430 | 79 | 261 | 4.3 | 7.0 | 0.00 | 0.00 | 0.00 | 53 | 1015.7 |
| 20260831110920 | 79 | 292 | 5.2 | 9.6 | 0.00 | 0.00 | 0.00 | 53 | 1015.7 |
| 20260831110411 | 81 | 278 | 5.2 | 8.7 | 0.00 | 0.00 | 0.00 | 55 | 1015.6 |
| 20260831105900 | 81 | 295 | 3.5 | 7.0 | 0.00 | 0.00 | 0.00 | 55 | 1015.6 |
| 20260831105350 | 81 | 265 | 4.3 | 7.8 | 0.00 | 0.00 | 0.00 | 52 | 1015.6 |
| 20260831104840 | 81 | 289 | 4.3 | 7.0 | 0.00 | 0.00 | 0.00 | 52 | 1015.6 |
| 20260831104331 | 80 | 275 | 5.2 | 9.6 | 0.00 | 0.00 | 0.00 | 54 | 1015.5 |
| 20260831103820 | 80 | 292 | 3.5 | 7.0 | 0.00 | 0.00 | 0.00 | 54 | 1015.5 |
| 20260831103310 | 79 | 242 | 5.2 | 9.6 | 0.00 | 0.00 | 0.00 | 52 | 1015.4 |
| 20260831102800 | 81 | 254 | 5.2 | 10.4 | 0.00 | 0.00 | 0.00 | 52 | 1015.4 |
| 20260831102250 | 81 | 249 | 6.1 | 8.7 | 0.00 | 0.00 | 0.00 | 52 | 1015.4 |
| 20260831101740 | 82 | 265 | 6.1 | 11.3 | 0.00 | 0.00 | 0.00 | 51 | 1015.2 |
| 20260831101231 | 82 | 272 | 5.2 | 11.3 | 0.00 | 0.00 | 0.00 | 51 | 1015.2 |
| 20260831100720 | 80 | 263 | 5.2 | 9.6 | 0.00 | 0.00 | 0.00 | 54 | 1015.2 |
| 20260831100210 | 80 | 243 | 4.3 | 7.8 | 0.00 | 0.00 | 0.00 | 54 | 1015.2 |
| 20260831095659 | 80 | 244 | 6.1 | 11.3 | 0.00 | 0.00 | 0.00 | 53 | 1015.2 |
| 20260831095206 | 80 | 261 | 4.3 | 8.7 | 0.00 | 0.00 | 0.00 | 53 | 1015.2 |
| 20260831094642 | 79 | 270 | 4.3 | 7.8 | 0.00 | 0.00 | 0.00 | 53 | 1015.1 |
| 20260831094130 | 79 | 264 | 3.5 | 6.1 | 0.00 | 0.00 | 0.00 | 53 | 1015.1 |
| 20260831093619 | 78 | 279 | 3.5 | 7.0 | 0.00 | 0.00 | 0.00 | 55 | 1015.0 |
| 20260831093110 | 78 | 260 | 2.6 | 5.2 | 0.00 | 0.00 | 0.00 | 55 | 1015.0 |
| 20260831092559 | 78 | 273 | 3.5 | 7.0 | 0.00 | 0.00 | 0.00 | 57 | 1015.0 |
| 20260831092105 | 78 | 270 | 2.6 | 4.3 | 0.00 | 0.00 | 0.00 | 57 | 1015.0 |
| 20260831091539 | 78 | 250 | 2.6 | 4.3 | 0.00 | 0.00 | 0.00 | 56 | 1014.9 |
| 20260831091030 | 78 | 281 | 1.7 | 3.5 | 0.00 | 0.00 | 0.00 | 56 | 1014.9 |
| 20260831090519 | 78 | 219 | 1.7 | 4.3 | 0.00 | 0.00 | 0.00 | 54 | 1015.1 |
| 20260831090010 | 78 | 225 | 2.6 | 4.3 | 0.00 | 0.00 | 0.00 | 54 | 1015.1 |
| 20260831085459 | 78 | 283 | 1.7 | 3.5 | 0.00 | 0.00 | 0.00 | 54 | 1015.2 |
| 20260831084950 | 78 | 300 | 2.6 | 3.5 | 0.00 | 0.00 | 0.00 | 54 | 1015.2 |
| 20260831084439 | 79 | 304 | 2.6 | 4.3 | 0.00 | 0.00 | 0.00 | 55 | 1015.2 |
| 20260831083930 | 80 | 286 | 2.6 | 5.2 | 0.00 | 0.00 | 0.00 | 53 | 1015.0 |
| 20260831083419 | 80 | 320 | 2.6 | 6.1 | 0.00 | 0.00 | 0.00 | 53 | 1015.0 |
| 20260831082909 | 82 | 260 | 3.5 | 7.0 | 0.00 | 0.00 | 0.00 | 48 | 1014.7 |
| 20260831082359 | 82 | 243 | 4.3 | 7.8 | 0.00 | 0.00 | 0.00 | 48 | 1014.7 |
| 20260831081849 | 81 | 201 | 4.3 | 4.3 | 0.00 | 0.00 | 0.00 | 53 | 1014.6 |
| 20260831081339 | 81 | 328 | 1.7 | 2.6 | 0.00 | 0.00 | 0.00 | 53 | 1014.6 |
| 20260831080829 | 80 | 347 | 0.9 | 2.6 | 0.00 | 0.00 | 0.00 | 51 | 1014.6 |
| 20260831080319 | 80 | 248 | 0.9 | 2.6 | 0.00 | 0.00 | 0.00 | 51 | 1014.6 |
| 20260831075809 | 79 | 300 | 0.9 | 2.6 | 0.00 | 0.00 | 0.00 | 52 | 1014.7 |
| 20260831075259 | 79 | 44 | 0.9 | 1.7 | 0.00 | 0.00 | 0.00 | 52 | 1014.7 |
| 20260831074749 | 78 | 29 | 0.9 | 2.6 | 0.00 | 0.00 | 0.00 | 54 | 1014.7 |
| 20260831074238 | 78 | 63 | 0.9 | 1.7 | 0.00 | 0.00 | 0.00 | 54 | 1014.7 |
| 20260831073729 | 76 | 13 | 0.9 | 2.6 | 0.00 | 0.00 | 0.00 | 57 | 1014.7 |
| 20260831073219 | 76 | 32 | 1.7 | 3.5 | 0.00 | 0.00 | 0.00 | 57 | 1014.7 |
| 20260831072709 | 73 | 27 | 1.7 | 2.6 | 0.00 | 0.00 | 0.00 | 60 | 1014.8 |
| 20260831072159 | 73 | 14 | 1.7 | 2.6 | 0.00 | 0.00 | 0.00 | 60 | 1014.8 |
| 20260831071649 | 74 | 351 | 1.7 | 3.5 | 0.00 | 0.00 | 0.00 | 60 | 1014.8 |
| 20260831071139 | 74 | 12 | 0.9 | 1.7 | 0.00 | 0.00 | 0.00 | 60 | 1014.8 |
| 20260831070629 | 74 | 355 | 1.7 | 2.6 | 0.00 | 0.00 | 0.00 | 61 | 1014.8 |